Location: Chenango Forks
(42.2242°N, 75.8278°W)
Time: 10:09:14
(UTC-04:00)

Daily predictions for brighter satellites

Satellite Brightness Start Highest point End
(mag) Time Altitude Azimuth Time Altitude Azimuth Time Altitude Azimuth
Meteor 1-27 Rocket 4.4 20:55:50 10° N 21:00:59 37° ENE 21:06:03 10° SE
CENTAUR R/B 3.4 20:53:44 10° NW 21:01:35 73° WSW 21:09:51 10° SSE
Cosmos 1356 Rocket 3.5 20:57:49 10° S 21:02:02 84° E 21:06:21 10° N
Coronas F rocket 1.2 21:01:20 10° S 21:03:58 85° W 21:06:38 10° N
Cosmos 1340 Rocket 3.7 21:02:59 10° SSW 21:06:53 54° WNW 21:10:52 10° N
Cosmos 1606 3.5 21:08:06 10° N 21:11:45 35° ENE 21:15:22 10° SE
ALOS 3.6 21:08:07 10° SSW 21:12:30 40° W 21:16:55 10° NNW
SJ-11-01 4.3 21:07:46 10° SSE 21:12:31 82° ENE 21:17:17 10° NNW
Cosmos 1908 Rocket 4.2 21:08:45 10° SSE 21:12:46 36° E 21:16:50 10° NNE
Cosmos 1174 4.2 21:09:45 10° NNW 21:12:49 33° NE 21:15:21 11° ESE
Cosmos 2056 Rocket 3.5 21:08:08 10° SSW 21:13:18 88° ESE 21:18:27 10° NNE
Cosmos 1782 2.8 21:10:17 10° N 21:14:18 67° E 21:18:19 10° SSE
deb Chang Zheng 4 3.9 21:11:02 10° NNE 21:15:18 47° E 21:19:35 10° S
Cosmos 1733 Rocket 3.1 21:11:24 10° S 21:15:49 90° W 21:20:14 10° N
Cosmos 1378 Rocket 4.3 21:12:01 10° N 21:15:58 34° ENE 21:19:45 11° SE
Cosmos 2154 Rocket 4.3 21:10:16 10° SSE 21:16:09 46° E 21:22:01 10° NNE
Cosmos 1892 3.4 21:14:56 10° SSW 21:18:42 59° W 21:22:32 10° N
Atlas Centaur 2 3.1 21:17:37 10° SSW 21:19:15 13° S 21:20:54 10° SSE
NOSS 2-2 (D) 3.9 21:15:51 10° SW 21:19:58 72° NW 21:24:48 10° NNE
Cosmos 2084 4.0 21:17:21 10° S 21:20:44 29° ESE 21:24:07 10° ENE
Cosmos 2184 Rocket 4.1 21:16:38 10° S 21:22:47 80° W 21:29:01 10° N
Cosmos 1939 Rocket 2.7 21:19:26 10° SSE 21:23:17 77° ENE 21:27:13 10° N
Cosmos 1238 Rocket 3.3 21:24:17 10° NNE 21:27:13 31° E 21:29:42 15° SE
COS B Rocket 3.5 21:25:30 10° NNE 21:29:32 49° E 21:32:57 11° SSE
SL-27 R/B 3.1 21:28:14 10° NNW 21:31:50 57° WSW 21:35:21 10° S
SPOT 5 3.3 21:27:03 10° SSE 21:32:10 60° ENE 21:37:27 10° N
Terra 3.9 21:30:52 10° E 21:32:54 13° ENE 21:34:56 10° NE
SL-8 R/B 4.2 21:28:30 10° WSW 21:33:17 65° NNW 21:38:05 10° ENE
ISS -2.6 21:30:37 10° SSW 21:33:32 31° SE 21:36:27 10° ENE
MINOTAUR IV R/B 4.5 21:29:43 10° SSW 21:34:11 81° ESE 21:38:40 10° NNE
H-2A R/B 2.2 21:38:29 10° S 21:42:49 77° WSW 21:47:04 10° NNW
COSMOS 2487 2.9 21:41:27 10° N 21:44:58 48° ENE 21:47:00 22° SE
ARGOS 3.8 21:42:25 17° SE 21:46:09 41° ENE 21:51:08 10° N
ATLAS 5 CENTAUR R/B 3.5 21:40:56 10° NW 21:46:35 41° WSW 21:52:32 10° S
Envisat 3.2 21:43:25 10° S 21:48:28 71° WSW 21:53:33 10° NNW
BREEZE-M DEB (TANK) 3.7 21:41:05 10° WNW 21:55:29 81° NNE 21:58:22 21° ESE
Cosmos 1420 Rocket 4.2 21:53:57 10° S 21:59:00 50° ESE 22:04:03 10° NNE
Intercosmos 25 3.5 21:57:44 25° SSE 21:59:19 41° E 22:02:21 10° NNE
GPS 2-05 Rocket1 4.1 21:57:29 10° SW 22:00:31 24° S 22:00:35 24° SSE
Cosmos 2278 Rocket 2.1 21:59:29 10° SSW 22:05:09 80° ESE 22:10:51 10° NNE
Cosmos 1833 Rocket 3.8 22:00:17 10° N 22:05:13 30° NE 22:08:17 19° ESE
H-2A R/B 3.1 22:03:38 21° ESE 22:06:20 33° ENE 22:11:02 10° N
Cosmos 407 Rocket 4.5 22:02:00 10° NNW 22:07:00 44° WSW 22:11:47 11° S
Cosmos 614 Rocket 4.4 22:03:12 10° N 22:08:07 47° ENE 22:10:37 26° SE
Cosmos 1825 2.5 22:04:42 10° SSW 22:08:29 68° W 22:12:18 10° N
YAOGAN 6 2.5 22:06:45 26° S 22:08:36 82° W 22:12:08 10° NNW
Okean 2 Rocket 3.0 22:05:29 17° S 22:08:52 74° E 22:13:16 10° NNE
Cosmos 1844 4.2 22:03:46 10° SW 22:09:29 65° WNW 22:15:17 10° NNE
Cosmos 1408 3.0 22:06:51 10° SSW 22:10:25 63° W 22:14:03 10° N
Nadezhda 3 Rocket 4.3 22:04:08 10° NNW 22:10:26 68° W 22:16:37 11° S
Cosmos 1844 Rocket 3.8 22:05:35 10° SW 22:11:01 47° WNW 22:16:28 10° NNE
Cosmos 2218 Rocket 4.3 22:07:31 20° SSE 22:11:43 50° E 22:17:51 10° NNE
BREEZE-M DEB (TANK) 4.4 22:10:02 10° W 22:12:54 43° N 22:20:15 10° ENE
Cosmos 1242 Rocket 2.5 22:12:12 10° N 22:15:52 79° E 22:17:12 37° SSE
Cosmos 1140 Rocket 3.4 22:10:41 10° NNW 22:15:52 85° ENE 22:18:40 28° SSE
Cosmos 1452 Rocket 4.1 22:11:11 10° SSW 22:16:22 60° WNW 22:21:36 10° NNE
MetOp-A 4.4 22:13:36 16° S 22:17:48 64° WSW 22:23:08 10° NNW
Okean 3 4.0 22:16:44 10° NNW 22:20:57 57° W 22:23:41 20° SSW
SPOT 1/Viking Rocket 3.5 22:18:19 24° SSE 22:21:31 87° WSW 22:26:46 10° NNW
USA 234 3.6 22:17:04 10° ENE 22:23:07 39° SE 22:29:07 10° SSW
Cosmos 2082 Rocket 2.6 22:18:56 10° NNW 22:24:31 52° ENE 22:27:07 30° ESE
CZ-4 R/B 3.7 22:20:02 10° NNE 22:24:41 62° ESE 22:26:54 30° S
Cosmos 1782 Rocket 4.1 22:21:11 11° SSW 22:25:28 60° W 22:29:55 10° N
DELTA 2 DEB (DPAF) 4.4 22:25:13 35° SE 22:26:44 52° ENE 22:31:05 10° N
Cosmos 1727 Rocket 4.3 22:20:56 10° N 22:26:55 50° ENE 22:29:40 30° SE
Cosmos 1812 4.0 22:24:57 10° NNE 22:28:12 25° ENE 22:28:24 25° E
CZ-4B R/B 3.3 22:23:30 10° NNE 22:28:30 90° W 22:32:07 18° SSW
Cosmos 1959 Rocket 4.4 22:26:11 23° S 22:30:04 69° E 22:36:08 10° NNE
DNEPR-1 R/B 3.8 22:30:54 10° NW 22:36:18 79° WSW 22:37:55 41° SSE
Cosmos 2297 3.6 22:34:15 15° SSW 22:39:01 77° ESE 22:44:46 10° NNE
Cosmos 1975 Rocket 4.0 22:36:19 10° NNW 22:40:24 42° W 22:42:49 21° SSW
CARTOSAT-1 3.8 22:41:40 46° ESE 22:42:33 56° ENE 22:46:47 10° N
Timation 2 Rocket 4.0 22:40:53 10° NNW 22:46:50 66° WSW 22:49:32 33° S
CZ-4C R/B 3.2 22:46:34 62° SSE 22:47:12 84° ENE 22:51:18 10° NNW
Cosmos 1850 Rocket 4.2 22:43:31 10° NNW 22:48:48 67° WSW 22:50:56 36° S
SL-8 Rocket 4.2 22:45:50 16° SSW 22:50:54 70° W 22:57:09 10° N
Cosmos 1339 Rocket 4.5 22:46:47 10° N 22:52:55 66° E 22:55:09 40° SSE
Cosmos 1536 Rocket 3.5 22:48:49 10° N 22:53:19 82° E 22:54:12 57° SSE
Landsat 7 3.8 22:52:46 45° S 22:54:14 79° WSW 22:59:02 10° NNW
Meteor 2-8 Rocket 4.4 22:50:06 10° N 22:56:17 83° E 22:58:43 40° SSE
DMSP B5D2-2 4.0 22:55:16 10° NNE 23:00:29 70° ESE 23:01:53 48° SSE
BREEZE-M TANK 3.4 22:56:54 10° W 23:07:25 66° N 23:09:01 33° ENE
BREEZE-M DEB (TANK) 4.0 23:07:10 10° NW 23:09:14 23° NNE 23:12:59 10° ENE
ISS -1.7 23:06:52 10° W 23:09:55 36° NNW 23:12:58 10° NE
Terra 1.8 23:09:02 57° S 23:09:58 79° WSW 23:14:46 10° NNW
USA 229 DEB 3.7 23:03:00 10° NW 23:10:09 88° SW 23:12:49 43° SSE
USA 229 3.7 23:03:05 10° NW 23:10:15 88° WSW 23:12:55 43° SSE
Cosmos 2369 Rocket 3.9 23:15:46 18° E 23:15:46 18° E 23:18:24 10° NE
Cosmos 2151 Rocket 4.4 23:13:00 32° SW 23:14:41 49° WNW 23:19:07 10° N
Spot 4 3.7 23:16:28 65° SSE 23:17:12 89° WSW 23:22:05 10° NNW
Iridium 4 Rocket 4.4 23:14:37 10° NNE 23:20:10 42° E 23:20:57 40° ESE
Cosmos 1331 Rocket 3.8 23:20:06 66° SSE 23:20:41 74° ESE 23:25:51 10° NNE
Meteor 1-20 Rocket 4.2 23:22:26 45° SSW 23:24:14 78° W 23:29:48 10° N
Cosmos 1110 Rocket 3.9 23:25:13 56° SSW 23:26:22 87° WNW 23:31:37 10° NNE
Okean 1 3.5 23:22:46 10° N 23:26:36 72° WNW 23:26:36 72° WNW
Lacrosse 5 3.6 23:30:40 21° ENE 23:30:40 21° ENE 23:32:32 10° ENE
ASTEX 1 3.3 23:26:26 10° N 23:31:24 85° W 23:31:59 70° SSW
ALOS 2 4.4 23:32:55 21° ENE 23:32:55 21° ENE 23:36:10 10° NNE
Meteor 2-21 4.5 23:32:08 54° SE 23:33:05 61° E 23:39:12 10° NNE
Cosmos 1025 Rocket 3.8 23:31:33 10° N 23:35:16 43° ENE 23:35:16 43° ENE
Cosmos 1809 Rocket 4.4 23:35:16 57° SE 23:36:15 65° E 23:42:23 10° NNE
Cosmos 1300 Rocket 3.8 23:39:23 64° W 23:39:30 64° W 23:43:56 10° N
IGS 5A 4.5 23:39:52 37° W 23:39:53 37° W 23:43:47 10° NNW
Okean 1 Rocket 3.2 23:40:29 73° WNW 23:40:29 73° WNW 23:44:56 10° N
Cosmos 1535 Rocket 4.5 23:40:50 58° SSE 23:42:00 72° E 23:48:23 10° NNE
Okean 1-7 Rocket 3.8 23:41:08 10° NNW 23:45:24 67° WNW 23:45:24 67° WNW
H-2A R/B 3.3 23:44:16 29° SW 23:45:40 34° W 23:50:30 10° NNW
Cosmos 1633 4.4 23:49:33 27° NE 23:49:33 27° NE 23:51:28 10° NNE
Cosmos 1354 Rocket 4.4 23:43:04 10° N 23:48:12 50° ENE 23:48:32 49° E
ATLAS 2AS CENTAUR R/B 4.4 23:42:04 10° NNW 23:49:11 32° NE 23:55:27 12° E
Cosmos 1833 Rocket 3.4 23:44:00 10° NW 23:49:14 41° WSW 23:49:59 39° SW
Cosmos 1486 Rocket 3.9 23:44:58 10° NNW 23:50:19 85° WSW 23:50:34 81° SSW
Cosmos 1943 Rocket 4.1 23:56:03 15° ENE 23:56:03 15° ENE 23:57:57 10° ENE
